Content
SEND FEEDBACK

Daily
Averages
Monthly
Summary
Hungary

FELSOHALOM, HUNGARY


Home > Europe > Hungary
Elevation: 456 feet     Latitude: 47 25N     Longitude: 019 10E

WEATHER
 
SELECT A DAY
Number of Records: 89,077;   Date Range: 7/2/96 - 4/14/14
 
SHARE

PRINT THIS DATA

[ ← Previous Day ]
WEATHER ALMANAC - JANUARY 31, 2013
[ Next Day → ]
[ °C ]   °F
Weather ElementAverageHighLow
Temperature45 °F50 °F (10:30 am)39.2 °F (12:30 am)
Dewpoint34.9 °F46.4 °F (3:00 am)28.4 °F (2:30 pm)
Humidity70.1 %100 % (12:30 am)43 % (2:30 pm)
Barometer29.93 in30.04 in (11:00 am)29.80 in (12:30 am)
Wind Speed16.4 mph34.5 mph (4:30 am)
Wind Gust43.7 mph (11:30 am)
Weather ElementAverage
Visibility6.2 mi
Wind DirectionW (268.5 °)

Weather ElementTotal
Precipitation---
Heating Degree Days20.4 (Base 65)
Averaged from 47 records on January 31, 2013
WEATHER CONDITIONS BREAKOUT
WIND DIRECTION BREAKOUT
WEATHER BY HOUR - JANUARY 31, 2013
[ °C ]   °F
Local TimeTemperatureDewpointHumidityBarometerVisibilityWind DirectionWind SpeedGust SpeedPrecipitationEventsConditions
12:30 AM39.2 °F39.2 °F100 %29.80 in6.2 miSouth (190°)4.6 mphRainLight Rain
1:00 AM39.2 °F39.2 °F100 %29.80 in6.2 miSSW (210°)5.8 mphRainLight Rain
1:30 AM39.2 °F39.2 °F100 %29.80 in6.2 miSSW (210°)6.9 mphRainLight Rain
2:00 AM39.2 °F39.2 °F100 %29.83 in6.2 miWSW (250°)9.2 mphRainLight Rain
2:30 AM41.0 °F41.0 °F100 %29.86 in6.2 miWest (260°)8.1 mphRainLight Rain
3:00 AM46.4 °F46.4 °F100 %29.86 in6.2 miWNW (290°)20.7 mphMostly Cloudy
3:30 AM46.4 °F44.6 °F93 %29.86 inWest (280°)23.0 mphClear
4:00 AM46.4 °F42.8 °F87 %29.86 inWNW (290°)27.6 mphClear
4:30 AM46.4 °F41.0 °F81 %29.86 inWNW (290°)34.5 mphClear
5:00 AM44.6 °F39.2 °F81 %29.89 in6.2 miWNW (300°)28.8 mphPartly Cloudy
5:30 AM44.6 °F41.0 °F87 %29.89 in6.2 miWNW (290°)26.5 mphScattered Clouds
6:00 AM46.4 °F41.0 °F81 %29.89 in6.2 miWNW (300°)16.1 mphScattered Clouds
6:30 AM44.6 °F39.2 °F81 %29.92 in6.2 miWNW (300°)16.1 mphMostly Cloudy
7:00 AM46.4 °F37.4 °F71 %29.95 in6.2 miWNW (300°)16.1 mphScattered Clouds
7:30 AM42.8 °F37.4 °F81 %29.95 in6.2 miWest (280°)15.0 mphScattered Clouds
8:00 AM42.8 °F35.6 °F76 %29.98 in6.2 miWNW (300°)16.1 mphScattered Clouds
8:30 AM44.6 °F35.6 °F71 %29.98 inNW (310°)11.5 mphClear
9:00 AM44.6 °F33.8 °F66 %29.98 inNW (320°)12.7 mphClear
9:30 AM46.4 °F33.8 °F62 %30.01 inNW (310°)16.1 mphClear
10:00 AM48.2 °F32.0 °F54 %30.01 in6.2 miWNW (290°)23.0 mphPartly Cloudy
10:30 AM50.0 °F32.0 °F50 %30.01 in6.2 miWNW (300°)23.0 mphPartly Cloudy
11:00 AM50.0 °F32.0 °F50 %30.04 in6.2 miWNW (300°)27.6 mphPartly Cloudy
11:30 AM50.0 °F32.0 °F50 %30.04 in6.2 miWNW (290°)31.1 mph43.7 mphPartly Cloudy
12:00 PM50.0 °F32.0 °F50 %30.04 in6.2 miWNW (290°)29.9 mphPartly Cloudy
12:30 PM50.0 °F32.0 °F50 %30.04 in6.2 miWNW (290°)26.5 mphPartly Cloudy
1:00 PM50.0 °F30.2 °F47 %30.01 inWNW (290°)31.1 mph43.7 mphClear
1:30 PM50.0 °F30.2 °F47 %29.98 inWNW (290°)27.6 mphClear
2:00 PM50.0 °F30.2 °F47 %29.98 inWNW (290°)24.2 mphClear
2:30 PM50.0 °F28.4 °F43 %29.98 inWNW (290°)25.3 mphClear
3:00 PM50.0 °F30.2 °F47 %29.95 inWNW (300°)21.9 mphClear
3:30 PM48.2 °F32.0 °F54 %29.95 inWNW (300°)15.0 mphClear
4:00 PM48.2 °F30.2 °F50 %29.95 inNW (310°)13.8 mphClear
4:30 PM48.2 °F32.0 °F54 %29.95 inWNW (290°)11.5 mphClear
5:00 PM46.4 °F32.0 °F57 %29.95 inWest (260°)8.1 mphClear
5:30 PM44.6 °F30.2 °F57 %29.95 inWNW (300°)5.8 mphClear
6:00 PM42.8 °F32.0 °F66 %29.95 inSouth (190°)8.1 mphClear
6:30 PM42.8 °F32.0 °F66 %29.92 inSW (230°)11.5 mphClear
7:00 PM42.8 °F32.0 °F66 %29.92 inSSW (210°)10.4 mphClear
7:30 PM42.8 °F33.8 °F70 %29.89 inSouth (170°)5.8 mphClear
8:00 PM41.0 °F33.8 °F76 %29.89 inSSW (200°)5.8 mphClear
8:30 PM41.0 °F33.8 °F76 %29.89 inSW (220°)9.2 mphClear
9:00 PM41.0 °F33.8 °F76 %29.89 inSW (220°)9.2 mphClear
9:30 PM41.0 °F35.6 °F81 %29.89 inWSW (250°)9.2 mphClear
10:00 PM41.0 °F33.8 °F76 %29.89 inWSW (240°)12.7 mphClear
10:30 PM41.0 °F33.8 °F76 %29.86 inWest (260°)11.5 mphClear
11:00 PM41.0 °F32.0 °F70 %29.86 inWSW (240°)9.2 mphClear
11:30 PM41.0 °F32.0 °F70 %29.86 inSW (230°)8.1 mphClear
Hourly data recorded from LHBP, located 3.82 miles away from Felsohalom, Hungary







STORIES FROM OUR PARTNERS